CARTOSAT-2E

Last updated on Fri Oct 04 2024 00:02:26 GMT+0000 (Coordinated Universal Time)

1 42767U 17036C 24277.55142119 .00016757 00000+0 79674-3 0 9994 2 42767 97.4256 335.2065 0004970 320.4308 39.6564 15.19254888403769

Satellite not in orbit